Miscellaneous Local Product
Issued by NWS Hastings, NE

Home | Current Version | Previous Version | Text Only | Print | Product List | Glossary Off
Versions: 1 2 3 4 5 6 7 8 9 10 11 12 13 14 15 16 17 18 19 20 21 22 23 24 25 26 27 28 29 30 31 32 33 34 35 36 37 38 39 40 41 42 43 44 45 46 47 48 49 50

000
AXUS43 KGID 301602
MISGRI

GID CWA HOURLY WEATHER ROUNDUP
NATIONAL WEATHER SERVICE HASTINGS NE
1100 AM CDT WED JUL 30 2014

NOTE: "FAIR" INDICATES FEW OR NO CLOUDS BELOW 12,000 FEET WITH NO
SIGNIFICANT WEATHER AND/OR OBSTRUCTIONS TO VISIBILITY.

...SOUTH CENTRAL NEBRASKA...

CITY           SKY/WX    TMP DP  RH WIND       PRES   REMARKS
GRAND ISLAND   FAIR      73  55  53 E6        30.20R
HASTINGS       FAIR      74  52  46 E6        30.19R
KEARNEY        FAIR      73  55  53 E7        30.20R
ORD            FAIR      73  59  61 CALM      30.18F
YORK           FAIR      73  55  53 NE5       30.19R
AURORA         FAIR      74  56  53 NE5       30.19R
LEXINGTON      FAIR      74  57  55 CALM      30.20S
HOLDREGE       FAIR      72  55  54 E3        30.20S
HEBRON         FAIR      73  54  51 NE3       30.17S

...NEBRASKA PANHANDLE...

CITY           SKY/WX    TMP DP  RH WIND       PRES   REMARKS
CHADRON        FAIR      72  56  57 W9        30.23F
ALLIANCE       FAIR      71  57  61 NW5       30.26F
SCOTTSBLUFF    FAIR      70  59  68 CALM      30.28S
SIDNEY         CLOUDY    65  59  81 CALM      30.30S

...WESTERN AND NORTH CENTRAL NEBRASKA...

CITY           SKY/WX    TMP DP  RH WIND       PRES   REMARKS
VALENTINE      FAIR      75  51  43 S3        30.21F
AINSWORTH      FAIR      74  51  45 NW5       30.22S
ONEILL         FAIR      74  57  54 N3        30.19S
BROKEN BOW     FAIR      76  58  53 N6        30.21S
IMPERIAL       CLOUDY    68  62  81 CALM      30.25S
NORTH PLATTE   FAIR      74  55  51 VRB5      30.22S
MCCOOK         FAIR      70  60  70 NE3       30.22S

...EASTERN NEBRASKA...

CITY           SKY/WX    TMP DP  RH WIND       PRES   REMARKS
NORFOLK        FAIR      75  56  51 VRB3      30.18S
SO SIOUX CITY  FAIR      75  57  53 CALM      30.16S
TEKAMAH        FAIR      76  56  49 N6        30.16S
ALBION         FAIR      72  57  59 N5        30.19S
OMAHA EPPLEY   FAIR      75  56  51 N7        30.16S
OFFUTT AFB     FAIR      75  59  56 NE6       30.15S
MILLARD        FAIR      75  56  52 CALM      30.16R
LINCOLN        FAIR      78  52  40 NE9       30.18R
NEBRASKA CITY  FAIR      73  56  54 NE6       30.16R
BEATRICE       FAIR      74  56  52 NE8       30.17R
FALLS CITY     FAIR      76  56  49 NE9       30.14R

...NORTHERN KANSAS...

CITY           SKY/WX    TMP DP  RH WIND       PRES   REMARKS
GOODLAND       CLOUDY    63  60  90 NE14      30.26R
HILL CITY      CLOUDY    68  58  70 E9        30.20R
NORTON         MOSUNNY   68  61  77 NE3       30.20R
PHILLIPSBURG   SUNNY     66  63  88 N6        30.18S
SMITH CENTER   SUNNY     66  61  82 NE7       30.18S
HAYS           CLOUDY    64  57  77 NE13      30.18R
RUSSELL        LGT RAIN  63  60  90 NE9       30.16R
CONCORDIA      FAIR      67  64  90 NE6       30.17R
SALINA         LGT RAIN  65  61  87 E8        30.15R
TOPEKA         FAIR      71  60  68 NE3       30.14R



USA.gov is the U.S. government's official web portal to all federal, state and local government web resources and services.